SBI7520 ZWTN-UTAA

Flight info

Callsign SBI7520
Flight time N/A
Altitude 36000
Route ZWTN N0448F360 VIDU8Z VIDUT W112 PURPA G206 TAPIS P173 DAVET B475 NINOP A125 KEMOR KEM11A UGMUR CI11R RW11R UTAA
Aircraft B738/M-SDGIWZ/S

Departure

Time 2026-05-04 11:51
Airport Hotan Airport (ZWTN)

Arrival

Time N/A
Airport Ashgabat International Airport (UTAA)
Time Latitude Longitude Altitude Speed Heading
2026-05-04 11:29 37.03918 79.87250 4680 ft 0 kts 290°
2026-05-04 11:48 37.03920 79.87241 4680 ft 4 kts 276°
2026-05-04 11:48 37.03874 79.87196 4680 ft 12 kts 202°
2026-05-04 11:49 37.03782 79.87175 4680 ft 16 kts 125°
2026-05-04 11:49 37.03733 79.87354 4680 ft 27 kts 109°
2026-05-04 11:49 37.03667 79.87602 4680 ft 32 kts 107°
2026-05-04 11:49 37.03602 79.87856 4680 ft 28 kts 107°
2026-05-04 11:50 37.03538 79.88061 4680 ft 21 kts 130°
2026-05-04 11:50 37.03421 79.88084 4680 ft 15 kts 199°
2026-05-04 11:50 37.03366 79.88003 4680 ft 14 kts 282°
2026-05-04 11:50 37.03472 79.87643 4680 ft 76 kts 291°
2026-05-04 11:51 37.03725 79.86776 4680 ft 133 kts 290°
2026-05-04 11:51 37.04098 79.85494 4681 ft 180 kts 288°
2026-05-04 11:51 37.04565 79.83936 4928 ft 196 kts 293°
2026-05-04 11:51 37.05091 79.82358 5455 ft 200 kts 293°
2026-05-04 11:52 37.05597 79.80725 6016 ft 203 kts 291°
2026-05-04 11:52 37.06343 79.79130 6142 ft 225 kts 320°
2026-05-04 11:52 37.07750 79.78384 6486 ft 226 kts 359°
2026-05-04 11:52 37.09360 79.78666 6674 ft 244 kts 17°
2026-05-04 11:53 37.10889 79.79642 6910 ft 259 kts 45°
2026-05-04 11:53 37.11781 79.81598 7401 ft 267 kts 79°
2026-05-04 11:53 37.11897 79.83940 7953 ft 275 kts 89°
2026-05-04 11:53 37.11992 79.86397 8412 ft 288 kts 84°
2026-05-04 11:55 37.13231 80.04567 12729 ft 310 kts 84°
2026-05-04 11:55 37.13415 80.07262 13288 ft 313 kts 84°
2026-05-04 11:56 37.13599 80.09975 13836 ft 316 kts 84°
2026-05-04 11:56 37.13784 80.12704 14367 ft 318 kts 84°
2026-05-04 11:56 37.13972 80.15495 14892 ft 321 kts 84°
2026-05-04 11:56 37.14159 80.18264 15394 ft 324 kts 84°
2026-05-04 11:57 37.14349 80.21094 15889 ft 326 kts 84°
2026-05-04 11:57 37.14538 80.23930 16372 ft 329 kts 83°
2026-05-04 11:57 37.14727 80.26763 16835 ft 331 kts 83°
2026-05-04 11:57 37.14919 80.29651 17294 ft 334 kts 83°
2026-05-04 11:58 37.15111 80.32552 17737 ft 336 kts 83°
2026-05-04 11:58 37.15303 80.35476 18175 ft 338 kts 83°
2026-05-04 11:58 37.15498 80.38435 18599 ft 341 kts 83°
2026-05-04 11:58 37.15698 80.41371 19007 ft 343 kts 82°
2026-05-04 11:59 37.16071 80.44331 19346 ft 347 kts 75°
2026-05-04 11:59 37.16695 80.47306 19393 ft 360 kts 72°
2026-05-04 11:59 37.17363 80.50394 19451 ft 372 kts 73°
2026-05-04 11:59 37.18025 80.53561 19500 ft 384 kts 73°
2026-05-04 12:00 37.18715 80.56850 19550 ft 395 kts 73°
2026-05-04 12:00 37.19437 80.60256 19651 ft 405 kts 73°
2026-05-04 12:00 37.20160 80.63669 19904 ft 409 kts 73°
2026-05-04 12:00 37.20889 80.67113 20170 ft 412 kts 73°
2026-05-04 12:01 37.21621 80.70578 20476 ft 415 kts 73°
2026-05-04 12:01 37.22369 80.74120 20783 ft 417 kts 73°
2026-05-04 12:02 37.26860 80.95457 22397 ft 430 kts 73°
2026-05-04 12:03 37.27613 80.99055 22635 ft 432 kts 73°
2026-05-04 12:03 37.28379 81.02714 22841 ft 435 kts 73°
2026-05-04 12:03 37.29147 81.06394 23059 ft 437 kts 73°
2026-05-04 12:03 37.29914 81.10076 23269 ft 440 kts 73°
2026-05-04 12:04 37.30689 81.13802 23454 ft 443 kts 73°
2026-05-04 12:04 37.31471 81.17567 23714 ft 444 kts 73°
2026-05-04 12:04 37.32247 81.21310 23938 ft 446 kts 73°
2026-05-04 12:04 37.33020 81.25049 24153 ft 447 kts 73°
2026-05-04 12:05 37.33799 81.28816 24370 ft 449 kts 73°
2026-05-04 12:05 37.34589 81.32649 24595 ft 450 kts 73°
2026-05-04 12:05 37.35367 81.36426 24783 ft 452 kts 73°
2026-05-04 12:05 37.36151 81.40244 24986 ft 453 kts 73°
2026-05-04 12:06 37.36939 81.44083 25192 ft 455 kts 73°
2026-05-04 12:06 37.37728 81.47936 25381 ft 456 kts 73°
2026-05-04 12:06 37.38518 81.51798 25568 ft 458 kts 73°
2026-05-04 12:06 37.39306 81.55660 25748 ft 459 kts 73°
2026-05-04 12:07 37.40097 81.59545 25947 ft 460 kts 73°
2026-05-04 12:07 37.40891 81.63448 26104 ft 462 kts 73°
2026-05-04 12:07 37.41686 81.67367 26284 ft 463 kts 73°
2026-05-04 12:07 37.42475 81.71259 26438 ft 464 kts 73°
2026-05-04 12:08 37.43278 81.75230 26605 ft 465 kts 73°
2026-05-04 12:08 37.44075 81.79172 26746 ft 467 kts 73°
2026-05-04 12:08 37.44868 81.83093 26908 ft 468 kts 73°
2026-05-04 12:08 37.45668 81.87055 27081 ft 469 kts 73°
2026-05-04 12:09 37.46468 81.91038 27200 ft 471 kts 73°
2026-05-04 12:09 37.47268 81.95020 27348 ft 471 kts 73°
2026-05-04 12:09 37.48070 81.99021 27517 ft 472 kts 73°
2026-05-04 12:09 37.48880 82.03057 27656 ft 473 kts 73°
2026-05-04 12:10 37.49678 82.07050 27755 ft 475 kts 73°
2026-05-04 12:10 37.50480 82.11100 27901 ft 476 kts 74°
2026-05-04 12:10 37.51270 82.15121 28044 ft 476 kts 74°
2026-05-04 12:10 37.52065 82.19178 28165 ft 477 kts 74°
2026-05-04 12:11 37.52854 82.23185 28268 ft 479 kts 73°
2026-05-04 12:11 37.53660 82.27265 28390 ft 480 kts 73°
2026-05-04 12:11 37.54465 82.31339 28497 ft 481 kts 73°
2026-05-04 12:11 37.55268 82.35420 28620 ft 482 kts 73°
2026-05-04 12:12 37.56071 82.39528 28738 ft 482 kts 73°
2026-05-04 12:12 37.56867 82.43629 28857 ft 483 kts 74°
2026-05-04 12:12 37.57664 82.47749 28974 ft 484 kts 74°
2026-05-04 12:12 37.58458 82.51847 29057 ft 485 kts 74°
2026-05-04 12:13 37.59259 82.55964 29181 ft 485 kts 73°
2026-05-04 12:14 37.64887 82.84917 29873 ft 489 kts 74°
2026-05-04 12:15 37.66482 82.93259 30071 ft 490 kts 75°
2026-05-04 12:15 37.67269 82.97435 30196 ft 490 kts 75°
2026-05-04 12:15 37.68060 83.01626 30336 ft 489 kts 75°
2026-05-04 12:16 37.69640 83.09965 30587 ft 489 kts 74°
2026-05-04 12:16 37.70610 83.14063 30699 ft 487 kts 67°
2026-05-04 12:16 37.71984 83.17896 30800 ft 484 kts 57°
2026-05-04 12:17 37.73879 83.21385 30964 ft 478 kts 46°
2026-05-04 12:17 37.76161 83.24408 31082 ft 475 kts 39°
2026-05-04 12:17 37.78677 83.27021 31203 ft 470 kts 30°
2026-05-04 12:17 37.81534 83.28971 31257 ft 464 kts 17°
2026-05-04 12:18 37.84549 83.30209 31491 ft 457 kts 11°
2026-05-04 12:18 37.87632 83.31168 31596 ft 455 kts
2026-05-04 12:18 37.90761 83.31472 31637 ft 448 kts 351°
2026-05-04 12:18 37.93777 83.30816 31822 ft 440 kts 343°
2026-05-04 12:19 37.96698 83.29921 31977 ft 438 kts 341°
2026-05-04 12:19 37.99574 83.28697 32014 ft 435 kts 332°
2026-05-04 12:19 38.02122 83.26703 32087 ft 428 kts 316°
2026-05-04 12:19 38.04311 83.24184 32334 ft 423 kts 314°
2026-05-04 12:20 38.08211 83.18659 32441 ft 421 kts 298°
2026-05-04 12:20 38.09368 83.15289 32544 ft 418 kts 288°
2026-05-04 12:20 38.10300 83.11787 32722 ft 416 kts 287°
2026-05-04 12:21 38.11189 83.04609 32817 ft 418 kts 265°
2026-05-04 12:21 38.10780 83.00931 32982 ft 417 kts 262°
2026-05-04 12:21 38.10271 82.97314 33045 ft 419 kts 259°
2026-05-04 12:22 38.09384 82.93819 33098 ft 422 kts 246°
2026-05-04 12:22 38.07812 82.90637 33192 ft 426 kts 236°
2026-05-04 12:22 38.04097 82.84843 33342 ft 431 kts 227°
2026-05-04 12:23 38.01709 82.82539 33402 ft 439 kts 212°
2026-05-04 12:23 37.98910 82.80896 33537 ft 440 kts 209°
2026-05-04 12:23 37.93782 82.76911 33693 ft 434 kts 219°
2026-05-04 12:24 37.88725 82.72686 33818 ft 437 kts 216°
2026-05-04 12:24 37.83578 82.68615 33959 ft 437 kts 216°
2026-05-04 12:25 37.78471 82.64535 34097 ft 438 kts 216°
2026-05-04 12:25 37.73315 82.60484 34231 ft 438 kts 216°
2026-05-04 12:26 37.68136 82.56435 34376 ft 438 kts 216°
2026-05-04 12:26 37.63120 82.52245 34515 ft 433 kts 224°
2026-05-04 12:27 37.59197 82.46600 34658 ft 426 kts 238°
2026-05-04 12:27 37.56064 82.40333 34783 ft 423 kts 245°
2026-05-04 12:28 37.53949 82.33664 34907 ft 417 kts 261°
2026-05-04 12:28 37.53558 82.30077 35021 ft 415 kts 264°
2026-05-04 12:28 37.53151 82.26516 35074 ft 415 kts 262°
2026-05-04 12:29 37.51966 82.19393 35253 ft 415 kts 258°
2026-05-04 12:29 37.50619 82.12347 35425 ft 414 kts 258°
2026-05-04 12:30 37.49283 82.05326 35585 ft 413 kts 258°
2026-05-04 12:30 37.47952 81.98309 35733 ft 413 kts 258°
2026-05-04 12:31 37.46574 81.91344 35831 ft 413 kts 258°
2026-05-04 12:31 37.45143 81.84328 35830 ft 416 kts 258°
2026-05-04 12:32 37.43042 81.73713 35829 ft 418 kts 258°
2026-05-04 12:33 37.41624 81.66629 35830 ft 417 kts 258°
2026-05-04 12:33 37.40211 81.59574 35831 ft 416 kts 258°
2026-05-04 12:34 37.38788 81.52554 35830 ft 417 kts 258°
2026-05-04 12:34 37.37355 81.45516 35830 ft 417 kts 258°
2026-05-04 12:35 37.35903 81.38474 35831 ft 416 kts 258°
2026-05-04 12:35 37.34441 81.31489 35831 ft 417 kts 257°
2026-05-04 12:36 37.32959 81.24417 35830 ft 417 kts 257°
2026-05-04 12:36 37.31499 81.17381 35832 ft 417 kts 257°
2026-05-04 12:37 37.30046 81.10365 35830 ft 416 kts 257°
2026-05-04 12:37 37.28592 81.03326 35830 ft 418 kts 257°
2026-05-04 12:38 37.27143 80.96277 35832 ft 420 kts 257°
2026-05-04 12:38 37.25653 80.89187 35830 ft 423 kts 257°
2026-05-04 12:39 37.24123 80.82044 35832 ft 425 kts 257°
2026-05-04 12:39 37.22610 80.74934 35831 ft 424 kts 257°
2026-05-04 12:40 37.21109 80.67814 35830 ft 422 kts 257°
2026-05-04 12:40 37.19612 80.60680 35832 ft 422 kts 257°
2026-05-04 12:41 37.18124 80.53568 35830 ft 424 kts 257°
2026-05-04 12:41 37.16600 80.46447 35831 ft 424 kts 257°
2026-05-04 12:42 37.15056 80.39336 35830 ft 424 kts 257°
2026-05-04 12:42 37.13515 80.32219 35830 ft 424 kts 256°
2026-05-04 12:43 37.11975 80.25133 35830 ft 422 kts 257°
2026-05-04 12:43 37.10442 80.18060 35832 ft 422 kts 257°
2026-05-04 12:44 37.08896 80.11010 35828 ft 420 kts 256°
2026-05-04 12:44 37.07364 80.03992 35832 ft 419 kts 256°
2026-05-04 12:45 37.05870 79.96950 35833 ft 418 kts 257°
2026-05-04 12:45 37.04429 79.89952 35831 ft 415 kts 258°
2026-05-04 12:46 37.03738 79.82857 35833 ft 414 kts 270°
2026-05-04 12:46 37.03724 79.75640 35828 ft 413 kts 271°
2026-05-04 12:47 37.03722 79.68497 35832 ft 412 kts 271°
2026-05-04 12:47 37.03662 79.61318 35831 ft 413 kts 270°
2026-05-04 12:48 37.03549 79.54131 35829 ft 414 kts 270°
2026-05-04 12:48 37.03413 79.46988 35832 ft 414 kts 269°
2026-05-04 12:49 37.03337 79.39811 35831 ft 414 kts 270°
2026-05-04 12:49 37.03289 79.32602 35828 ft 411 kts 270°
2026-05-04 12:50 37.03268 79.25484 35829 ft 412 kts 270°
2026-05-04 12:50 37.03207 79.18329 35831 ft 414 kts 270°
2026-05-04 12:51 37.03116 79.11121 35830 ft 413 kts 269°
2026-05-04 12:51 37.03052 79.03969 35830 ft 415 kts 270°
2026-05-04 12:52 37.03029 78.96759 35828 ft 416 kts 271°
2026-05-04 12:52 37.02942 78.89556 35831 ft 415 kts 270°
2026-05-04 12:53 37.02861 78.82373 35831 ft 414 kts 270°
2026-05-04 12:53 37.02774 78.75150 35832 ft 415 kts 270°
2026-05-04 12:54 37.02669 78.67962 35832 ft 414 kts 270°
2026-05-04 12:54 37.02562 78.60783 35831 ft 415 kts 270°
2026-05-04 12:55 37.02495 78.53580 35834 ft 416 kts 271°
2026-05-04 12:55 37.02469 78.46370 35831 ft 413 kts 271°
2026-05-04 12:56 37.02440 78.39221 35831 ft 413 kts 270°
2026-05-04 12:56 37.02297 78.31998 35831 ft 415 kts 268°
2026-05-04 12:57 37.02083 78.24824 35830 ft 414 kts 269°
2026-05-04 12:57 37.01918 78.17629 35830 ft 413 kts 269°
2026-05-04 12:58 37.01791 78.10498 35830 ft 415 kts 269°
2026-05-04 12:58 37.01658 78.03278 35831 ft 413 kts 270°
2026-05-04 12:59 37.01568 77.96086 35829 ft 413 kts 270°
2026-05-04 12:59 37.01509 77.88952 35830 ft 414 kts 270°
2026-05-04 13:00 37.01399 77.81731 35832 ft 414 kts 270°
2026-05-04 13:00 37.01297 77.74545 35828 ft 413 kts 270°
2026-05-04 13:01 37.01169 77.67402 35831 ft 415 kts 269°
2026-05-04 13:01 37.01039 77.60201 35831 ft 415 kts 270°
2026-05-04 13:02 37.00898 77.53024 35829 ft 412 kts 269°
2026-05-04 13:02 37.00725 77.45875 35833 ft 414 kts 269°
2026-05-04 13:03 37.00566 77.38660 35831 ft 414 kts 270°
2026-05-04 13:03 37.00395 77.31516 35830 ft 412 kts 269°
2026-05-04 13:04 37.00167 77.24334 35829 ft 412 kts 268°
2026-05-04 13:04 36.99915 77.17197 35828 ft 413 kts 269°
2026-05-04 13:05 36.99671 77.10062 35830 ft 411 kts 269°
2026-05-04 13:05 36.99471 77.02934 35831 ft 413 kts 269°
2026-05-04 13:06 36.99266 76.95785 35831 ft 412 kts 269°
2026-05-04 13:06 36.99077 76.88648 35830 ft 411 kts 269°
2026-05-04 13:07 36.98852 76.81486 35833 ft 412 kts 269°
2026-05-04 13:07 36.98634 76.74342 35832 ft 412 kts 269°
2026-05-04 13:08 36.98452 76.67219 35830 ft 413 kts 269°
2026-05-04 13:08 36.98329 76.60068 35832 ft 413 kts 270°
2026-05-04 13:09 36.98169 76.52888 35832 ft 413 kts 269°
2026-05-04 13:09 36.97973 76.45716 35830 ft 413 kts 269°
2026-05-04 13:10 36.97778 76.38577 35830 ft 412 kts 269°
2026-05-04 13:10 36.97545 76.31439 35829 ft 413 kts 268°
2026-05-04 13:11 36.97298 76.24316 35831 ft 412 kts 268°
2026-05-04 13:11 36.97074 76.17149 35830 ft 412 kts 268°
2026-05-04 13:12 36.96824 76.10019 35831 ft 413 kts 268°
2026-05-04 13:12 36.96599 76.02849 35831 ft 412 kts 268°
2026-05-04 13:13 36.96362 75.95711 35832 ft 412 kts 268°
2026-05-04 13:13 36.96114 75.88605 35831 ft 412 kts 268°
2026-05-04 13:14 36.95834 75.81416 35854 ft 412 kts 268°
2026-05-04 13:14 36.95569 75.74309 35857 ft 412 kts 268°
2026-05-04 13:15 36.95312 75.67180 35859 ft 411 kts 268°
2026-05-04 13:15 36.95034 75.60055 35857 ft 412 kts 268°
2026-05-04 13:16 36.94746 75.52908 35858 ft 411 kts 268°
2026-05-04 13:16 36.94471 75.45831 35858 ft 411 kts 267°
2026-05-04 13:17 36.93264 75.38880 35861 ft 415 kts 251°
2026-05-04 13:17 36.91142 75.32147 35858 ft 415 kts 251°
2026-05-04 13:18 36.89131 75.25434 35858 ft 413 kts 251°
2026-05-04 13:18 36.87072 75.18772 35859 ft 415 kts 250°
2026-05-04 13:19 36.84925 75.12084 35857 ft 414 kts 250°
2026-05-04 13:19 36.82793 75.05432 35858 ft 413 kts 250°
2026-05-04 13:20 36.80647 74.98804 35860 ft 415 kts 250°
2026-05-04 13:20 36.78482 74.92188 35857 ft 413 kts 250°
2026-05-04 13:21 36.76331 74.85585 35856 ft 412 kts 250°
2026-05-04 13:21 36.74200 74.78972 35858 ft 412 kts 250°
2026-05-04 13:22 36.72088 74.72337 35857 ft 414 kts 250°
2026-05-04 13:22 36.69939 74.65656 35857 ft 414 kts 250°
2026-05-04 13:23 36.67782 74.59074 35859 ft 412 kts 250°
2026-05-04 13:23 36.65579 74.52477 35856 ft 413 kts 250°
2026-05-04 13:24 36.63383 74.45910 35858 ft 412 kts 250°
2026-05-04 13:24 36.61193 74.39349 35858 ft 412 kts 250°
2026-05-04 13:25 36.57981 74.29383 35858 ft 413 kts 250°
2026-05-04 13:25 36.55796 74.22812 35857 ft 411 kts 249°
2026-05-04 13:26 36.53606 74.16285 35859 ft 414 kts 249°
2026-05-04 13:26 36.51441 74.09660 35858 ft 414 kts 250°
2026-05-04 13:27 36.49233 74.03036 35855 ft 414 kts 249°
2026-05-04 13:27 36.47007 73.96515 35859 ft 413 kts 249°
2026-05-04 13:28 36.44773 73.89921 35859 ft 414 kts 249°
2026-05-04 13:28 36.42552 73.83362 35856 ft 412 kts 249°
2026-05-04 13:29 36.40375 73.76829 35858 ft 413 kts 250°
2026-05-04 13:29 36.38188 73.70241 35859 ft 413 kts 250°
2026-05-04 13:30 36.35993 73.63647 35857 ft 413 kts 249°
2026-05-04 13:30 36.33797 73.57101 35858 ft 414 kts 249°
2026-05-04 13:31 36.31527 73.50542 35859 ft 414 kts 249°
2026-05-04 13:31 36.29268 73.44040 35858 ft 413 kts 249°
2026-05-04 13:32 36.27070 73.37483 35857 ft 413 kts 250°
2026-05-04 13:32 36.24861 73.30921 35859 ft 414 kts 249°
2026-05-04 13:33 36.22619 73.24367 35858 ft 411 kts 248°
2026-05-04 13:33 36.20416 73.17891 35855 ft 413 kts 249°
2026-05-04 13:34 36.18170 73.11337 35832 ft 413 kts 249°
2026-05-04 13:34 36.15888 73.04859 35809 ft 411 kts 249°
2026-05-04 13:35 36.12519 72.95142 35793 ft 412 kts 250°
2026-05-04 13:36 36.10279 72.88635 35798 ft 411 kts 249°
2026-05-04 13:36 36.08053 72.82172 35792 ft 411 kts 250°
2026-05-04 13:37 36.05793 72.75658 35787 ft 412 kts 249°
2026-05-04 13:37 36.03512 72.69236 35777 ft 411 kts 249°
2026-05-04 13:38 36.01222 72.62747 35778 ft 412 kts 249°
2026-05-04 13:38 35.98986 72.56294 35775 ft 411 kts 250°
2026-05-04 13:39 35.96735 72.49830 35776 ft 411 kts 249°
2026-05-04 13:39 35.94482 72.43376 35776 ft 411 kts 249°
2026-05-04 13:40 35.92169 72.36898 35776 ft 411 kts 249°
2026-05-04 13:40 35.89855 72.30492 35776 ft 412 kts 249°
2026-05-04 13:41 35.87583 72.23995 35776 ft 412 kts 249°
2026-05-04 13:41 35.85317 72.17535 35777 ft 411 kts 249°
2026-05-04 13:42 35.81880 72.07867 35776 ft 410 kts 249°
2026-05-04 13:42 35.79580 72.01498 35778 ft 411 kts 249°
2026-05-04 13:43 35.77273 71.95074 35775 ft 410 kts 249°
2026-05-04 13:43 35.74966 71.88659 35776 ft 411 kts 249°
2026-05-04 13:44 35.72656 71.82230 35777 ft 412 kts 249°
2026-05-04 13:44 35.70347 71.75806 35776 ft 411 kts 249°
2026-05-04 13:45 35.68014 71.69389 35775 ft 410 kts 249°
2026-05-04 13:45 35.65720 71.63017 35778 ft 412 kts 249°
2026-05-04 13:46 35.63417 71.56585 35776 ft 411 kts 249°
2026-05-04 13:46 35.61060 71.50191 35778 ft 412 kts 245°
2026-05-04 13:47 35.58197 71.44125 35776 ft 412 kts 243°
2026-05-04 13:47 35.55376 71.38054 35777 ft 413 kts 244°
2026-05-04 13:48 35.52548 71.31907 35778 ft 413 kts 243°
2026-05-04 13:48 35.49725 71.25797 35777 ft 412 kts 243°
2026-05-04 13:49 35.46889 71.19691 35778 ft 414 kts 243°
2026-05-04 13:49 35.44000 71.13588 35776 ft 414 kts 243°
2026-05-04 13:50 35.41154 71.07550 35777 ft 412 kts 243°
2026-05-04 13:50 35.38303 71.01451 35777 ft 413 kts 243°
2026-05-04 13:51 35.35444 70.95362 35778 ft 413 kts 243°
2026-05-04 13:51 35.32583 70.89316 35776 ft 410 kts 244°
2026-05-04 13:52 35.28295 70.80278 35778 ft 411 kts 244°
2026-05-04 13:53 35.25437 70.74261 35775 ft 412 kts 244°
2026-05-04 13:53 35.22577 70.68211 35776 ft 410 kts 244°
2026-05-04 13:54 35.18363 70.59179 35777 ft 411 kts 244°
2026-05-04 13:55 35.14053 70.50170 35776 ft 410 kts 244°
2026-05-04 13:55 35.09755 70.41156 35776 ft 410 kts 245°
2026-05-04 13:56 35.07007 70.35017 35776 ft 410 kts 246°
2026-05-04 13:57 35.02981 70.25851 35776 ft 411 kts 245°
2026-05-04 13:58 34.97546 70.13735 35776 ft 406 kts 245°
2026-05-04 13:58 34.93475 70.04793 35777 ft 402 kts 245°
2026-05-04 13:59 34.90743 69.98885 35778 ft 400 kts 245°
2026-05-04 14:00 34.86641 69.90063 35776 ft 398 kts 245°
2026-05-04 14:00 34.82592 69.81276 35776 ft 399 kts 245°
2026-05-04 14:01 34.79887 69.75397 35777 ft 397 kts 245°
2026-05-04 14:02 34.75846 69.66672 35777 ft 398 kts 245°
2026-05-04 14:02 34.73100 69.60798 35776 ft 398 kts 245°
2026-05-04 14:03 34.70390 69.54981 35777 ft 398 kts 246°
2026-05-04 14:03 34.67683 69.49110 35776 ft 398 kts 245°
2026-05-04 14:04 34.63593 69.40391 35777 ft 398 kts 245°
2026-05-04 14:04 34.60862 69.34586 35777 ft 398 kts 245°
2026-05-04 14:05 34.56821 69.25793 35776 ft 396 kts 249°
2026-05-04 14:06 34.55205 69.19523 35778 ft 388 kts 266°
2026-05-04 14:06 34.55183 69.13042 35774 ft 386 kts 279°
2026-05-04 14:06 34.55846 69.09898 35779 ft 385 kts 290°
2026-05-04 14:07 34.56911 69.06939 35776 ft 387 kts 294°
2026-05-04 14:07 34.59812 69.01394 35776 ft 391 kts 304°
2026-05-04 14:08 34.63020 68.96112 35776 ft 392 kts 302°
2026-05-04 14:08 34.66193 68.90735 35776 ft 392 kts 303°
2026-05-04 14:09 34.70984 68.82686 35777 ft 393 kts 303°
2026-05-04 14:10 34.75779 68.74649 35797 ft 393 kts 303°
2026-05-04 14:10 34.78959 68.69309 35833 ft 393 kts 303°
2026-05-04 14:11 34.82160 68.63927 35888 ft 392 kts 303°
2026-05-04 14:11 34.86907 68.55885 35952 ft 392 kts 303°
2026-05-04 14:12 34.90071 68.50486 35965 ft 392 kts 303°
2026-05-04 14:13 34.94855 68.42428 35966 ft 392 kts 303°
2026-05-04 14:13 34.98012 68.37035 35966 ft 392 kts 303°
2026-05-04 14:14 35.01171 68.31641 35965 ft 392 kts 303°
2026-05-04 14:14 35.05912 68.23578 35966 ft 391 kts 303°
2026-05-04 14:15 35.12052 68.12663 35966 ft 392 kts 302°
2026-05-04 14:16 35.16687 68.04459 35966 ft 392 kts 302°
2026-05-04 14:17 35.21317 67.96274 35966 ft 391 kts 302°
2026-05-04 14:18 35.25957 67.88071 35965 ft 391 kts 302°
2026-05-04 14:19 35.32104 67.77142 35966 ft 392 kts 303°
2026-05-04 14:19 35.35220 67.71702 35966 ft 392 kts 302°
2026-05-04 14:20 35.38299 67.66226 35966 ft 392 kts 303°
2026-05-04 14:20 35.41435 67.60754 35966 ft 391 kts 303°
2026-05-04 14:21 35.46086 67.52588 35966 ft 392 kts 303°
2026-05-04 14:21 35.49176 67.47115 35965 ft 391 kts 303°
2026-05-04 14:22 35.52272 67.41664 35965 ft 391 kts 303°
2026-05-04 14:22 35.55356 67.36198 35966 ft 391 kts 303°
2026-05-04 14:23 35.59985 67.27944 35965 ft 390 kts 302°
2026-05-04 14:24 35.63065 67.22482 35966 ft 391 kts 303°
2026-05-04 14:24 35.66172 67.17001 35966 ft 390 kts 302°
2026-05-04 14:25 35.69244 67.11545 35966 ft 390 kts 302°
2026-05-04 14:25 35.73816 67.03319 35966 ft 390 kts 301°
2026-05-04 14:26 35.76870 66.97825 35965 ft 389 kts 301°
2026-05-04 14:26 35.79935 66.92332 35966 ft 390 kts 301°
2026-05-04 14:27 35.83032 66.86867 35965 ft 390 kts 301°
2026-05-04 14:27 35.86087 66.81405 35965 ft 389 kts 301°
2026-05-04 14:28 35.89144 66.75882 35967 ft 390 kts 301°
2026-05-04 14:28 35.92202 66.70383 35965 ft 389 kts 301°
2026-05-04 14:29 35.98342 66.59425 35966 ft 391 kts 301°
2026-05-04 14:30 36.01376 66.53911 35965 ft 390 kts 301°
2026-05-04 14:31 36.05980 66.45648 35966 ft 389 kts 301°
2026-05-04 14:32 36.12073 66.34591 35966 ft 389 kts 301°
2026-05-04 14:32 36.15119 66.29109 35967 ft 389 kts 301°
2026-05-04 14:33 36.18181 66.23600 35966 ft 389 kts 301°
2026-05-04 14:33 36.21203 66.18079 35966 ft 389 kts 300°
2026-05-04 14:34 36.24210 66.12531 35965 ft 390 kts 300°
2026-05-04 14:34 36.27225 66.06986 35965 ft 390 kts 300°
2026-05-04 14:35 36.30284 66.01445 35966 ft 388 kts 301°
2026-05-04 14:35 36.33302 65.95931 35966 ft 389 kts 300°
2026-05-04 14:36 36.36315 65.90372 35964 ft 390 kts 301°
2026-05-04 14:36 36.39335 65.84827 35958 ft 389 kts 300°
2026-05-04 14:37 36.42354 65.79260 35952 ft 388 kts 300°
2026-05-04 14:37 36.45352 65.73708 35944 ft 389 kts 300°
2026-05-04 14:38 36.48363 65.68121 35939 ft 389 kts 300°
2026-05-04 14:38 36.51351 65.62549 35939 ft 389 kts 300°
2026-05-04 14:39 36.54368 65.56971 35939 ft 389 kts 301°
2026-05-04 14:39 36.57369 65.51443 35938 ft 388 kts 300°
2026-05-04 14:40 36.61830 65.43078 35939 ft 389 kts 301°
2026-05-04 14:40 36.64841 65.37511 35938 ft 388 kts 301°
2026-05-04 14:41 36.67845 65.31924 35940 ft 389 kts 300°
2026-05-04 14:42 36.73794 65.20720 35939 ft 387 kts 300°
2026-05-04 14:42 36.76775 65.15121 35940 ft 389 kts 300°
2026-05-04 14:43 36.79765 65.09559 35938 ft 389 kts 300°
2026-05-04 14:43 36.82736 65.03963 35939 ft 388 kts 300°
2026-05-04 14:44 36.85704 64.98343 35939 ft 388 kts 300°
2026-05-04 14:44 36.88693 64.92728 35939 ft 389 kts 300°
2026-05-04 14:45 36.91666 64.87127 35941 ft 390 kts 300°
2026-05-04 14:45 36.94612 64.81459 35937 ft 387 kts 295°
2026-05-04 14:46 36.96722 64.75336 35941 ft 384 kts 285°
2026-05-04 14:46 36.98289 64.68971 35939 ft 386 kts 285°